This demonstration page uses our WeatherBlox Daily Observations layout. Learn more.

Left ArrowRight Arrow

38.89511, -77.03637

Hourly Observations for May 20, 2018

Temp ( °F °C ) Dew Point ( °F °C ) Humidity (%) Winds ( mph kmh ) Pressure ( in mb ) Visibility ( mi km ) Precip ( " mm )
12:52 am 00:52 Cloudy 69 20.6 66 18.9 90 90 S 9 15 30.03 1017 10 16 0.00 0.00
1:52 am 01:52 Cloudy 72 22.2 68 20 87 87 SSW 9 15 30.02 1017 10 16 0.00 0.00
2:29 am 02:29 Cloudy 71 21.7 67 19.4 87 87 S 8 13 30.03 1017 10 16 0.00 0.00
2:52 am 02:52 Cloudy 69 20.6 66 18.9 90 90 S 8 13 30.01 1016 10 16 0.00 0.00
3:38 am 03:38 Mostly Cloudy 71 21.7 67 19.4 87 87 S 9 15 30.00 1016 10 16 0.00 0.00
3:52 am 03:52 Mostly Cloudy 69 20.6 66 18.9 90 90 S 8 13 30.00 1016 10 16 0.00 0.00
4:00 am 04:00 Mostly Cloudy 69 20.6 66 18.9 90 90 S 8 13 30.00 1016 10 16 0.00 0.00
4:21 am 04:21 Cloudy 69 20.6 66 18.9 90 90 S 9 15 30.00 1016 10 16 0.00 0.00
4:28 am 04:28 Cloudy 69 20.6 66 18.9 90 90 S 10 17 30.00 1016 10 16 0.00 0.00
4:52 am 04:52 Cloudy 70 21.1 67 19.4 90 90 S 9 15 30.00 1016 10 16 0.00 0.00
5:52 am 05:52 Cloudy 69 20.6 66 18.9 90 90 S 5 7 30.00 1016 10 16 0.00 0.00
6:52 am 06:52 Cloudy 71 21.7 67 19.4 87 87 SSW 6 9 30.03 1017 10 16 0.00 0.00
7:52 am 07:52 Cloudy 71 21.7 67 19.4 87 87 S 8 13 30.04 1017 10 16 0.00 0.00
8:52 am 08:52 Mostly Cloudy 75 23.9 69 20.6 82 82 S 8 13 30.04 1017 10 16 0.00 0.00
9:28 am 09:28 Cloudy 76 24.4 69 20.6 79 79 SSW 8 13 30.03 1017 10 16 0.00 0.00
9:52 am 09:52 Mostly Cloudy 74 23.3 68 20 82 82 S 7 11 30.04 1017 10 16 0.00 0.00
10:52 am 10:52 Mostly Cloudy 76 24.4 69 20.6 79 79 S 13 20 30.03 1017 10 16 0.00 0.00
11:52 am 11:52 Mostly Cloudy 79 26.1 69 20.6 72 72 SSE 13 20 30.04 1017 10 16 0.00 0.00
12:52 pm 12:52 Mostly Cloudy 85 29.4 67 19.4 55 55 SW 13 20 30.02 1017 10 16 0.00 0.00
1:52 pm 13:52 Partly Cloudy 87 30.6 67 19.4 51 51 SW 8 13 30.01 1016 10 16 0.00 0.00
2:52 pm 14:52 Mostly Cloudy 85 29.4 65 18.3 51 51 WSW 14 22 30.01 1016 10 16 0.00 0.00
3:52 pm 15:52 Mostly Cloudy 87 30.6 64 17.8 46 46 WSW 9 15 30.00 1016 10 16 0.00 0.00
4:52 pm 16:52 Partly Cloudy 89 31.7 63 17.2 42 42 VRB 5 7 29.98 1015 10 16 0.00 0.00
5:52 pm 17:52 Partly Cloudy 89 31.7 62 16.7 41 41 WNW 12 19 29.98 1015 10 16 0.00 0.00
6:52 pm 18:52 Mostly Cloudy 84 28.9 65 18.3 53 53 SW 10 17 30.00 1016 10 16 0.00 0.00
7:52 pm 19:52 Mostly Cloudy 84 28.9 66 18.9 55 55 WSW 7 11 30.01 1016 10 16 0.00 0.00
8:52 pm 20:52 Mostly Cloudy 81 27.2 66 18.9 61 61 WSW 6 9 30.02 1017 10 16 0.00 0.00
9:52 pm 21:52 Mostly Cloudy 74 23.3 66 18.9 76 76 S 7 11 30.04 1017 10 16 0.00 0.00
10:52 pm 22:52 Mostly Cloudy 73 22.8 66 18.9 79 79 Calm 30.05 1018 10 16 0.00 0.00
11:52 pm 23:52 Mostly Cloudy 74 23.3 64 17.8 71 71 NNE 9 15 30.07 1018 10 16 0.00 0.00

Powered by AerisWeather